Regional Weather Roundup
Issued by NWS Little Rock, AR

Home | Current Version | Previous Version | Text Only | Print | Product List | Glossary Off
Versions: 1 2 3 4 5 6 7 8 9 10 11 12 13 14 15 16 17 18 19 20 21 22 23 24 25 26 27 28 29 30 31 32 33 34 35 36 37 38 39 40 41 42 43 44 45 46 47 48 49 50

000
ASUS44 KLZK 242305
RWRLZK

WEATHER ROUNDUP FOR ARKANSAS
NATIONAL WEATHER SERVICE LITTLE ROCK AR
600 PM CDT SUN MAY 24 2015

NOTE: "FAIR" INDICATES FEW OR NO CLOUDS BELOW 12,000 FEET WITH NO
SIGNIFICANT WEATHER AND/OR OBSTRUCTIONS TO VISIBILITY.

ARZ001-003-010-029-250000-
NORTHWEST ARKANSAS

CITY           SKY/WX    TMP DP  RH WIND       PRES   REMARKS
FAYETTEVILLE   RAIN      63  62  97 MISG      29.86S FOG
FORT SMITH     CLOUDY    66  62  87 SW5       29.85F
HARRISON       CLOUDY    65  64  97 CALM      29.88F
BENTONVILLE    CLOUDY   N/A N/A N/A E3        29.86S
ROGERS         LGT RAIN  63  60  90 NE3       29.87S
SILOAM SPGS    CLOUDY    63  57  82 SE3       29.86F
HIGHFILL       LGT RAIN  64  32  30 E6        29.85F
SPRINGDALE     LGT RAIN  64  64 100 CALM      29.88S FOG
$$

ARZ004-005-016-250000-
NORTH CENTRAL ARKANSAS

CITY           SKY/WX    TMP DP  RH WIND       PRES   REMARKS
BATESVILLE     CLOUDY    72  64  78 SW16G43   29.92R
FLIPPIN        CLOUDY    70  66  88 SE7       29.86S
MTN HOME       HVY RAIN  69  68  96 S8        29.88S FOG
$$

ARZ040-041-250000-
WEST CENTRAL ARKANSAS

CITY           SKY/WX    TMP DP  RH WIND       PRES   REMARKS
MENA           CLOUDY    70  68  94 SW5       29.88S
MOUNT IDA      PTSUNNY   76  67  73 VRB6      29.84S
$$

ARZ009-017-025-026-028-250000-
NORTHEAST ARKANSAS

CITY           SKY/WX    TMP DP  RH WIND       PRES   REMARKS
CORNING          N/A     81  68  65 S17G25    29.91F
JONESBORO      PTSUNNY   82  70  66 SE16      29.91F HX  86
NEWPORT        TSTM      77  66  68 SW40G46   29.89F
WALNUT RIDGE   PTSUNNY   81  66  61 S18       29.90S
BLYTHEVILLE    MOSUNNY   85  67  54 S26G35    29.94F HX  87
$$

ARZ022-023-033-042-044-250000-
CENTRAL ARKANSAS

CITY           SKY/WX    TMP DP  RH WIND       PRES   REMARKS
LITTLE ROCK    CLOUDY    72  66  81 S10       29.89F
N LITTLE ROCK  PTSUNNY   72  69  92 S12       29.89F
JACKSONVILLE   CLOUDY    70  68  93 SE6       29.89F
SEARCY         LGT RAIN  69  66  90 S9        29.93R
HOT SPRINGS    PTSUNNY   75  68  78 S12       29.87F
RUSSELLVILLE   CLOUDY    73  69  87 VRB5      29.85F
CLINTON        FAIR      70  68  94 SE5       29.90F
$$

ARZ036-250000-
EAST ARKANSAS

CITY           SKY/WX    TMP DP  RH WIND       PRES   REMARKS
WEST MEMPHIS   TSTM      69  67  93 S12G32    29.96R FOG
$$

ARZ050-053-066-070-073-250000-
SOUTHWEST ARKANSAS

CITY           SKY/WX    TMP DP  RH WIND       PRES   REMARKS
ARKADELPHIA    FAIR      78  73  84 SE10      29.88F
CAMDEN         PTSUNNY   77  66  69 NE13      29.89F
TEXARKANA      PTSUNNY   77  69  76 S12       29.87S
EL DORADO      CLOUDY    75  68  78 S9        29.91S
DE QUEEN       CLOUDY    75  71  87 VRB7      29.82F
$$

ARZ056-057-069-250000-
SOUTHEAST ARKANSAS

CITY           SKY/WX    TMP DP  RH WIND       PRES   REMARKS
PINE BLUFF     CLOUDY    73  67  81 S9        29.91S
STUTTGART      CLOUDY    72  66  83 S13       29.93F
MONTICELLO     CLOUDY    74  71  91 SE5       29.91F

$$




USA.gov is the U.S. government's official web portal to all federal, state and local government web resources and services.